Wind_Speed
32 33 34 33 32 32 34 34 37 36 35 35 38 40 41 43 45 46 48 49 51 53 55 57 60 62 65 68 70 72 74 75 76 75 74 74 74 73 71 68 66 63 62 61
35 36 38 37 34 35 37 37 38 39 38 38 41 41 42 44 46 47 49 50 52 53 55 57 60 62 65 67 70 72 74 75 76 75 74 73 73 73 70 67 65 62 61 60
39 39 41 40 36 37 40 40 41 42 41 42 44 43 44 46 47 48 50 51 53 53 55 57 59 61 64 66 69 71 73 74 75 75 74 73 73 72 70 67 64 61 59 59
43 43 45 39 38 39 41 41 43 44 44 46 46 45 45 47 49 50 51 52 53 54 54 56 59 61 63 65 68 70 72 73 75 75 73 72 72 71 70 67 64 61 58 58
45 47 48 42 40 41 43 43 43 45 46 47 48 47 46 48 49 50 51 52 53 53 54 56 58 60 62 64 67 69 71 72 74 74 73 72 71 71 69 67 64 61 58 57
46 48 50 45 42 42 44 45 45 46 47 48 49 50 49 50 51 51 52 52 53 53 53 55 57 59 61 64 66 68 70 71 72 73 73 71 70 70 69 67 64 61 58 56
47 49 51 45 44 44 44 44 46 48 49 50 52 52 53 53 53 53 53 53 53 54 54 54 56 58 61 63 65 67 69 70 71 72 72 70 69 69 68 66 63 60 57 56
48 51 49 45 44 43 43 45 47 50 51 52 53 53 53 53 54 54 54 54 54 55 54 55 56 58 60 63 65 66 67 68 69 70 71 69 68 67 67 65 62 59 56 54
54 53 50 48 45 44 45 47 49 51 52 54 55 55 54 54 54 54 55 55 55 55 55 55 56 58 60 62 64 65 66 67 68 69 69 68 66 66 65 64 62 59 55 53
60 57 53 52 50 48 49 51 52 53 54 56 57 57 56 56 56 56 56 56 56 56 56 57 58 59 60 62 63 64 65 65 66 67 67 67 65 64 64 63 61 58 55 52
65 61 60 58 56 56 56 56 57 57 57 58 59 59 58 58 58 59 59 59 58 58 58 58 59 60 61 62 63 63 63 64 64 65 66 65 64 63 63 63 62 59 55 51
67 64 67 65 62 62 63 62 61 61 61 60 61 62 62 62 61 61 62 62 61 60 60 60 60 61 61 62 62 62 62 62 62 63 63 63 62 61 61 62 61 58 55 50
66 65 67 66 64 63 64 64 64 63 63 63 62 63 64 64 63 63 63 63 63 62 61 61 61 60 61 62 62 62 61 60 60 60 61 61 60 59 59 60 60 58 54 50
59 61 62 61 62 61 63 63 63 63 63 63 63 63 64 64 64 64 63 64 63 62 61 61 61 60 60 61 61 60 59 58 58 58 58 58 58 57 56 57 57 56 53 49
53 55 56 55 55 55 56 57 58 59 59 60 60 60 61 61 61 61 61 62 62 62 61 61 60 60 60 60 59 58 56 56 56 55 56 56 55 54 54 55 55 55 52 49
46 48 50 51 51 52 53 54 54 54 54 55 55 56 56 57 57 57 58 59 59 59 59 59 59 59 59 58 57 55 54 53 53 53 53 53 53 52 52 52 53 53 51 48
40 41 42 44 45 46 48 48 49 49 50 51 51 52 53 53 53 53 54 55 56 57 57 57 57 58 58 57 55 53 51 50 50 50 50 50 50 49 49 50 51 51 50 47
39 40 42 44 45 46 47 49 50 50 49 49 49 50 50 51 51 52 53 53 53 53 54 54 55 56 56 55 53 51 49 48 48 47 47 47 47 46 46 47 49 50 49 46
41 42 43 44 45 46 47 48 48 49 49 50 51 51 52 52 51 51 51 51 51 51 52 53 53 53 53 52 51 49 47 46 45 44 44 44 44 44 44 45 46 48 47 45
46 47 47 48 49 49 49 49 50 51 52 53 53 53 53 53 52 52 51 49 50 51 51 51 52 51 50 49 48 46 45 43 42 41 41 41 41 41 41 42 44 45 46 44
50 51 51 52 53 54 56 57 58 58 57 57 57 57 56 55 54 53 52 51 50 50 50 49 49 48 47 47 46 44 42 41 39 38 38 38 38 38 39 40 41 43 44 43
52 54 55 57 58 59 60 61 62 63 62 62 62 62 61 59 57 55 53 52 51 50 49 48 47 46 45 44 43 42 39 37 36 36 35 35 35 36 36 37 39 41 42 42
56 57 58 60 62 63 63 64 65 66 66 66 66 65 64 62 59 56 53 51 50 49 48 46 45 44 44 42 41 39 37 34 33 33 33 33 33 33 34 35 37 39 40 40
56 58 60 62 64 64 65 65 67 68 69 68 67 65 63 59 56 55 53 50 49 47 46 44 43 43 42 40 38 36 34 31 30 30 30 30 30 31 31 33 34 36 38 39
56 59 61 64 65 66 67 67 68 68 68 67 65 62 59 56 54 51 49 47 46 45 43 43 41 40 38 37 35 33 31 29 28 28 27 27 28 29 29 31 32 34 36 37
57 60 61 62 64 65 66 67 68 67 66 64 59 55 52 50 48 46 44 43 42 41 40 39 38 36 35 33 32 31 28 27 26 25 25 25 26 26 27 29 30 32 34 35
57 59 60 61 61 62 63 64 64 62 58 55 50 46 45 43 41 40 40 38 37 36 36 35 34 32 31 31 30 28 26 24 23 23 23 23 24 24 25 27 29 30 32 34
Wind_Direction
267 271 274 276 278 280 283 287 291 297 299 304 304 309 313 316 319 322 325 328 331 333 336 338 340 342 343 344 346 347 348 348 348 348 348 349 350 352 353 353 353 353 353 354
267 269 273 276 280 282 283 286 289 292 296 299 300 305 308 311 314 317 320 324 327 330 333 335 338 340 342 343 344 346 347 348 348 348 348 349 351 352 353 354 354 354 354 355
271 271 272 276 280 279 281 284 286 289 293 294 297 301 304 306 310 314 317 320 324 327 330 332 335 338 340 342 343 345 346 347 348 348 348 349 351 353 354 355 355 355 355 356
274 274 274 280 280 280 280 281 283 286 289 292 295 298 301 304 308 311 314 317 320 324 327 330 332 335 338 340 342 344 345 346 347 348 348 349 350 353 354 355 356 356 356 356
277 278 279 280 282 281 281 282 284 285 287 289 292 295 298 300 303 307 310 314 317 320 324 327 330 333 336 338 340 342 344 345 347 348 348 349 350 352 355 356 356 357 357 357
277 279 281 285 285 284 283 283 284 284 286 288 290 293 295 298 301 304 308 311 314 318 321 324 328 331 333 336 339 341 343 344 345 347 347 348 350 352 354 356 357 357 358 358
277 279 281 287 288 287 286 287 285 285 286 287 289 292 295 297 300 303 306 309 311 315 318 321 325 328 331 334 336 339 341 343 344 346 347 348 349 351 354 356 357 357 358 359
276 277 282 285 286 286 286 285 285 285 286 287 289 291 294 296 298 301 303 306 308 312 315 318 322 325 328 331 334 336 339 341 343 344 346 347 348 351 353 356 357 358 358 359
274 277 280 281 283 284 283 282 282 283 285 287 288 290 292 294 296 298 301 303 306 309 312 315 318 322 325 329 331 334 337 339 341 343 344 346 347 350 353 355 357 358 358 359
275 277 278 278 279 279 279 278 279 281 282 284 286 288 290 291 293 295 297 300 302 305 308 311 314 318 322 325 328 331 334 336 339 341 343 344 346 349 352 355 357 358 358 359
277 279 278 277 278 278 277 277 278 279 280 281 283 285 287 289 290 292 293 296 298 301 304 307 310 314 317 321 324 327 330 333 336 339 341 343 345 347 350 354 356 357 358 359
280 281 280 279 278 278 278 279 278 279 279 280 281 283 284 285 287 289 291 293 295 298 301 304 306 309 313 316 320 323 327 330 333 336 339 341 343 346 349 352 356 358 358 359
281 281 280 280 280 280 280 280 280 280 281 281 281 281 282 283 285 287 289 291 293 296 299 301 303 306 309 312 316 320 323 327 330 334 337 340 342 344 348 351 354 357 358 358
280 280 281 281 281 281 281 281 281 282 283 283 283 283 283 284 285 286 287 289 291 293 295 297 300 303 305 308 312 316 320 323 327 331 334 338 340 343 347 350 353 356 358 358
278 279 281 283 284 284 284 284 284 284 284 285 285 286 286 285 286 287 287 288 289 290 292 293 296 299 302 305 308 312 316 319 324 328 332 335 338 341 345 349 352 355 357 358
282 283 284 285 286 287 288 288 288 288 288 288 288 288 288 288 288 288 287 287 288 289 289 291 293 295 297 301 304 308 312 316 320 325 329 333 336 339 343 347 351 354 356 357
288 289 289 289 289 290 291 292 293 293 293 292 292 291 291 290 289 288 287 287 287 288 288 289 290 291 294 296 300 304 308 312 317 322 326 330 334 337 342 346 349 353 355 357
290 290 291 292 292 293 293 293 294 294 295 294 294 294 294 293 292 290 288 286 286 286 286 286 287 288 290 293 296 300 304 308 313 319 324 328 331 335 340 344 348 351 354 356
289 290 292 293 294 295 295 295 294 294 294 294 295 295 295 294 292 291 289 287 285 284 284 284 284 286 289 290 293 296 300 304 310 316 321 325 329 333 338 342 346 350 353 355
287 289 290 292 292 293 293 294 295 295 295 296 295 295 293 292 291 289 288 287 285 283 282 282 283 283 285 287 289 292 296 301 306 312 318 323 327 331 336 341 345 349 352 355
287 289 290 291 291 291 292 292 292 292 293 293 294 294 294 292 290 288 286 284 282 281 280 280 280 281 281 283 285 288 292 297 303 309 315 320 324 329 334 339 343 347 351 353
288 289 289 290 290 290 290 291 291 291 291 292 292 292 293 291 289 286 285 283 280 277 276 277 277 277 278 280 282 285 289 294 299 306 312 318 322 327 332 337 342 346 350 353
288 289 289 289 289 289 290 291 291 291 291 291 291 291 291 290 288 285 283 281 278 274 272 272 273 273 274 277 280 282 285 290 296 303 310 315 320 325 331 336 340 345 348 352
289 289 290 290 291 291 291 291 291 292 291 291 291 291 290 289 286 284 281 279 276 272 270 269 269 270 270 273 276 279 281 286 292 300 307 312 317 323 329 334 339 343 348 351
290 291 292 293 293 293 293 293 293 292 292 291 291 289 288 287 286 283 279 276 274 271 268 266 266 265 267 269 272 274 277 282 289 297 304 310 316 321 327 333 338 342 347 350
292 294 295 296 297 297 296 296 295 294 292 291 289 288 287 286 284 282 278 275 272 269 267 265 263 262 263 265 267 269 273 279 286 294 301 308 314 320 326 331 337 341 346 350
295 296 298 299 299 299 300 300 299 298 295 292 290 288 286 285 283 281 279 276 272 268 265 262 259 258 259 261 262 265 269 276 283 291 299 306 312 318 325 330 336 341 345 350
Height
5826 5824 5822 5821 5821 5818 5814 5811 5807 5805 5802 5799 5792 5787 5781 5775 5769 5762 5756 5748 5740 5732 5723 5713 5703 5692 5680 5668 5654 5640 5626 5611 5596 5580 5565 5549 5532 5516 5499 5483 5467 5452 5438 5423
5819 5817 5813 5813 5814 5810 5806 5804 5800 5796 5794 5791 5784 5780 5775 5768 5762 5756 5749 5742 5734 5725 5717 5707 5697 5686 5675 5662 5649 5635 5621 5606 5591 5576 5560 5545 5529 5513 5496 5481 5465 5450 5436 5422
5809 5808 5805 5805 5807 5802 5798 5796 5792 5787 5786 5781 5777 5772 5767 5761 5755 5749 5742 5734 5727 5719 5710 5701 5691 5681 5669 5657 5644 5630 5616 5602 5587 5572 5557 5541 5525 5510 5494 5479 5464 5449 5435 5421
5798 5798 5794 5801 5797 5793 5789 5787 5783 5779 5776 5771 5767 5763 5759 5752 5746 5740 5734 5727 5720 5712 5703 5694 5685 5674 5663 5651 5639 5625 5612 5597 5583 5568 5553 5538 5522 5507 5492 5477 5463 5449 5434 5421
5788 5784 5783 5789 5787 5782 5778 5777 5774 5769 5766 5761 5757 5754 5751 5744 5738 5732 5726 5720 5712 5704 5696 5687 5678 5668 5657 5645 5633 5620 5607 5593 5579 5564 5550 5535 5520 5504 5490 5475 5461 5447 5434 5421
5778 5774 5772 5778 5776 5771 5768 5766 5764 5758 5755 5751 5746 5743 5741 5735 5730 5724 5718 5711 5704 5696 5688 5680 5671 5661 5651 5640 5628 5616 5603 5589 5575 5561 5546 5532 5517 5502 5488 5473 5459 5445 5432 5420
5767 5763 5762 5767 5763 5759 5757 5756 5751 5747 5743 5740 5735 5732 5728 5724 5719 5713 5707 5701 5694 5687 5680 5672 5663 5654 5644 5633 5622 5611 5598 5585 5572 5558 5544 5529 5515 5501 5486 5472 5458 5445 5432 5419
5757 5753 5756 5756 5752 5749 5746 5743 5739 5734 5731 5727 5724 5720 5716 5712 5707 5702 5696 5690 5684 5677 5670 5663 5655 5646 5637 5627 5617 5606 5594 5581 5568 5555 5541 5527 5513 5499 5485 5471 5457 5444 5431 5419
5744 5745 5746 5743 5740 5738 5734 5730 5726 5722 5719 5715 5711 5708 5704 5700 5695 5690 5685 5679 5673 5667 5660 5654 5646 5639 5630 5621 5611 5600 5589 5577 5564 5552 5539 5525 5511 5497 5484 5470 5457 5444 5432 5420
5730 5732 5733 5729 5727 5724 5720 5715 5713 5710 5706 5702 5697 5694 5691 5687 5683 5678 5673 5668 5662 5656 5650 5644 5637 5630 5623 5614 5604 5594 5584 5573 5561 5548 5536 5523 5510 5496 5483 5470 5456 5444 5432 5421
5714 5718 5715 5714 5712 5708 5704 5701 5699 5696 5693 5688 5683 5681 5677 5673 5669 5664 5660 5655 5650 5645 5640 5634 5628 5621 5614 5606 5598 5588 5578 5568 5556 5545 5533 5521 5508 5495 5482 5469 5456 5444 5433 5422
5697 5701 5694 5693 5695 5692 5687 5684 5682 5679 5677 5674 5669 5665 5662 5658 5655 5650 5646 5642 5638 5634 5629 5624 5618 5612 5605 5598 5590 5582 5573 5563 5552 5541 5529 5518 5505 5493 5480 5468 5455 5443 5431 5421
5681 5679 5674 5673 5675 5673 5668 5665 5664 5661 5659 5656 5654 5649 5645 5642 5639 5636 5632 5628 5624 5621 5617 5613 5608 5602 5596 5589 5582 5574 5566 5557 5547 5536 5526 5514 5503 5490 5478 5466 5454 5442 5431 5420
5663 5659 5654 5655 5655 5654 5650 5648 5646 5644 5641 5638 5636 5633 5629 5626 5624 5621 5618 5614 5611 5608 5604 5600 5596 5591 5585 5579 5573 5566 5559 5550 5541 5531 5521 5511 5500 5488 5476 5464 5453 5441 5430 5420
5645 5642 5639 5639 5638 5637 5634 5630 5628 5626 5624 5622 5619 5616 5613 5610 5608 5606 5603 5599 5596 5593 5590 5586 5583 5579 5574 5568 5563 5557 5551 5543 5535 5526 5517 5507 5496 5485 5474 5463 5452 5441 5430 5420
5629 5628 5626 5624 5623 5621 5618 5615 5612 5611 5608 5605 5603 5600 5597 5594 5592 5590 5587 5584 5581 5578 5576 5573 5570 5566 5562 5557 5553 5548 5542 5536 5528 5520 5511 5502 5492 5482 5472 5461 5451 5440 5429 5419
5617 5615 5613 5611 5609 5606 5603 5600 5597 5595 5592 5589 5587 5584 5581 5579 5576 5574 5571 5568 5566 5564 5561 5559 5556 5552 5549 5546 5542 5538 5533 5527 5521 5514 5506 5497 5488 5479 5469 5459 5449 5439 5429 5419
5605 5603 5601 5598 5596 5593 5590 5587 5583 5580 5577 5574 5571 5568 5565 5562 5560 5558 5555 5553 5551 5549 5547 5544 5541 5538 5536 5534 5531 5528 5524 5519 5513 5507 5500 5492 5483 5475 5465 5456 5447 5437 5427 5418
5594 5591 5589 5585 5582 5579 5576 5572 5569 5565 5562 5558 5555 5552 5549 5546 5543 5541 5539 5537 5535 5533 5531 5529 5527 5525 5524 5522 5520 5517 5514 5510 5505 5499 5493 5486 5478 5470 5462 5453 5444 5435 5426 5417
5582 5579 5576 5572 5569 5565 5561 5558 5554 5550 5546 5542 5539 5536 5533 5530 5527 5524 5522 5521 5519 5517 5516 5514 5512 5512 5511 5509 5508 5507 5504 5501 5497 5492 5486 5480 5473 5466 5458 5450 5442 5433 5424 5415
5568 5565 5561 5558 5554 5550 5546 5541 5537 5533 5529 5525 5521 5518 5515 5512 5509 5506 5504 5504 5503 5500 5500 5499 5498 5498 5497 5497 5497 5496 5494 5491 5488 5484 5479 5474 5467 5461 5453 5446 5438 5430 5422 5413
5553 5549 5545 5541 5537 5533 5529 5523 5519 5514 5510 5506 5502 5498 5495 5493 5490 5488 5487 5485 5485 5484 5484 5484 5484 5484 5484 5484 5485 5485 5484 5482 5479 5476 5472 5467 5461 5455 5449 5442 5435 5427 5419 5411
5536 5532 5528 5523 5518 5514 5510 5504 5498 5493 5489 5485 5481 5477 5474 5472 5470 5468 5468 5467 5466 5467 5468 5469 5470 5471 5471 5473 5474 5474 5473 5472 5470 5468 5464 5460 5455 5450 5444 5438 5431 5424 5417 5409
5518 5514 5509 5504 5498 5493 5489 5484 5478 5473 5467 5463 5459 5454 5451 5450 5449 5448 5448 5449 5449 5450 5452 5454 5456 5457 5459 5461 5463 5463 5463 5463 5462 5460 5457 5453 5449 5444 5439 5433 5427 5420 5413 5406
5500 5496 5490 5484 5478 5472 5467 5462 5457 5451 5445 5441 5437 5434 5431 5429 5429 5429 5429 5430 5432 5434 5437 5440 5442 5444 5447 5450 5452 5453 5454 5454 5453 5452 5449 5446 5443 5438 5434 5428 5423 5417 5410 5403
5483 5478 5472 5465 5458 5451 5445 5439 5433 5428 5422 5418 5416 5414 5411 5410 5410 5410 5412 5414 5416 5419 5423 5426 5429 5433 5437 5440 5442 5444 5444 5445 5445 5444 5442 5439 5436 5433 5428 5424 5419 5413 5407 5400
5467 5460 5454 5448 5441 5432 5425 5418 5411 5405 5400 5396 5395 5395 5394 5394 5394 5396 5397 5400 5402 5406 5410 5413 5418 5422 5426 5430 5432 5434 5436 5437 5437 5436 5435 5433 5430 5427 5423 5419 5414 5409 5403 5397